This is the latest recevied weather packets stored in our database for station/object DD3UTS-13. If no packets are shown the sender has not sent any weather packets the latest 10 day(s).
| Time | Temp. | Humidity | Pressure | Rain* | Wind** | Luminosity | Snow |
|---|---|---|---|---|---|---|---|
| 1778053531 | 15.56° C | 73% | 1004 hPa | 0 mm | - | 485 W/m² | - |
| 1778053232 | 15.56° C | 73% | 1004 hPa | 0 mm | - | 496 W/m² | - |
| 1778052932 | 15.56° C | 74% | 1004.1 hPa | 0 mm | - | 452 W/m² | - |
| 1778052631 | 15.56° C | 75% | 1004.1 hPa | 0 mm | - | 485 W/m² | - |
| 1778052332 | 15.56° C | 74% | 1004.1 hPa | 0 mm | - | 443 W/m² | - |
| 1778052032 | 15.56° C | 75% | 1004.3 hPa | 0 mm | - | 474 W/m² | - |
| 1778051732 | 15.56° C | 75% | 1004.3 hPa | 0 mm | - | 493 W/m² | - |
| 1778051432 | 15.56° C | 75% | 1004.3 hPa | 0 mm | - | 425 W/m² | - |
| 1778051131 | 15° C | 75% | 1004.5 hPa | 0 mm | - | 433 W/m² | - |
| 1778050832 | 15.56° C | 76% | 1004.6 hPa | 0 mm | - | 367 W/m² | - |
| 1778050532 | 15° C | 76% | 1004.5 hPa | 0 mm | - | 503 W/m² | - |
| 1778050231 | 15° C | 75% | 1004.5 hPa | 0 mm | - | 437 W/m² | - |
| 1778049932 | 15° C | 76% | 1004.3 hPa | 0 mm | - | 412 W/m² | - |
| 1778049631 | 14.44° C | 75% | 1004.2 hPa | 0 mm | - | 375 W/m² | - |
| 1778049331 | 14.44° C | 76% | 1004.2 hPa | 0 mm | - | 371 W/m² | - |
| 1778049032 | 14.44° C | 76% | 1004.2 hPa | 0 mm | - | 375 W/m² | - |
| 1778048732 | 14.44° C | 77% | 1004.2 hPa | 0 mm | - | 359 W/m² | - |
| 1778048432 | 14.44° C | 77% | 1004.2 hPa | 0 mm | - | 355 W/m² | - |
| 1778048132 | 14.44° C | 77% | 1004.2 hPa | 0 mm | - | 351 W/m² | - |
| 1778047832 | 13.89° C | 79% | 1004.2 hPa | 0 mm | - | 347 W/m² | - |
| 1778047532 | 13.89° C | 79% | 1004.2 hPa | 0 mm | - | 256 W/m² | - |
| 1778047231 | 13.33° C | 80% | 1004.1 hPa | 0 mm | - | 137 W/m² | - |
| 1778046931 | 13.33° C | 80% | 1004 hPa | 0 mm | - | 119 W/m² | - |
| 1778046632 | 13.33° C | 80% | 1003.9 hPa | 0 mm | - | 113 W/m² | - |
| 1778046332 | 13.33° C | 81% | 1003.9 hPa | 0 mm | - | 116 W/m² | - |
* Rain latest 24 hours (hover to see other rain measurements)
** Current wind speed in m/s (hover to see current wind gust speed)